Date String (YYYY-MM-DD hh:mm:ss) UTC,Instrument flags,Ambient pressure (hPa),Sample flow (lpm),Bypass flow (lpm),Sample temperature (°C),Ambient temperature (°C),ASC tube jacket temperature (°C),LED temperature (°C),Box temperature (°C),Sample RH (%),Span deviation,Mass concentration (μg/m³),Mass concentration (μg/m³),Mass concentration (μg/m³)
DateTimeUTC,F1_M11,P_M11,Q1_M11,Q2_M11,T1_M11,T2_M11,T3_M11,T4_M11,T5_M11,U1_M11,ZSPAN_M11,X0_M11,X2_M11,X1_M11
2022-09-29 01:00:00,,0830.8,5.01,0.00,29.8,27.2,00.0,38.4,31.6,16.3,0000.0,0016.79,0004.89,0003.61
2022-09-29 01:01:00,,0830.8,5.00,0.00,29.8,27.5,00.0,38.4,31.6,16.1,0000.0,0016.58,0004.89,0003.61
2022-09-29 01:02:00,,0830.7,4.99,0.00,29.8,27.7,00.0,38.4,31.6,15.9,0000.0,0015.80,0004.87,0003.60
2022-09-29 01:03:00,,0830.7,5.01,0.00,29.8,28.0,00.0,38.4,31.6,15.8,0000.0,0016.52,0004.85,0003.59
2022-09-29 01:04:00,,0830.8,4.99,0.00,29.8,28.2,00.0,38.4,31.7,15.6,0000.0,0016.53,0004.77,0003.57
2022-09-29 01:05:00,,0830.8,5.00,0.00,29.8,28.4,00.0,38.4,31.7,15.3,0000.0,0015.58,0004.70,0003.56
2022-09-29 01:06:00,,0830.8,4.99,0.00,29.8,28.6,00.0,38.4,31.8,15.4,0000.0,0015.76,0004.67,0003.55
2022-09-29 01:07:00,,0830.8,4.99,0.00,29.9,28.7,00.0,38.5,31.8,15.5,0000.0,0016.36,0004.63,0003.54
2022-09-29 01:08:00,,0830.8,5.00,0.00,29.9,28.8,00.0,38.5,31.9,15.8,0000.0,0016.04,0004.63,0003.53
2022-09-29 01:09:00,,0830.8,5.00,0.00,29.9,28.9,00.0,38.5,31.9,15.7,0000.0,0015.91,0004.63,0003.52
2022-09-29 01:10:00,,0830.7,4.99,0.00,30.0,29.0,00.0,38.5,31.9,15.6,0000.0,0016.03,0004.66,0003.52
2022-09-29 01:11:00,,0830.7,4.99,0.00,30.0,28.7,00.0,38.6,31.9,15.3,0000.0,0016.07,0004.66,0003.52
2022-09-29 01:12:00,,0830.7,5.01,0.00,30.0,27.4,00.0,38.5,31.7,15.3,0000.0,0016.25,0004.63,0003.53
2022-09-29 01:13:00,,0830.7,4.99,0.00,29.9,26.9,00.0,38.5,31.7,15.2,0000.0,0015.98,0004.60,0003.53
2022-09-29 01:14:00,,0830.6,5.00,0.00,29.9,27.0,00.0,38.5,31.6,15.3,0000.0,0014.37,0004.57,0003.55
2022-09-29 01:15:00,,0830.6,5.01,0.00,29.8,27.3,00.0,38.5,31.6,15.3,0000.0,0013.97,0004.58,0003.56
2022-09-29 01:16:00,,0830.6,5.01,0.00,29.8,27.7,00.0,38.5,31.6,15.4,0000.0,0014.15,0004.61,0003.57
2022-09-29 01:17:00,,0830.6,4.99,0.00,29.8,27.9,00.0,38.5,31.6,15.4,0000.0,0014.21,0004.66,0003.58
2022-09-29 01:18:00,,0830.6,5.00,0.00,29.8,28.1,00.0,38.5,31.7,15.5,0000.0,0013.90,0004.68,0003.58
2022-09-29 01:19:00,,0830.6,5.01,0.00,29.8,28.3,00.0,38.5,31.7,15.5,0000.0,0013.95,0004.69,0003.57
2022-09-29 01:20:00,,0830.6,4.99,0.00,29.8,28.5,00.0,38.5,31.8,15.6,0000.0,0013.33,0004.69,0003.57
2022-09-29 01:21:00,,0830.7,5.02,0.00,29.9,28.7,00.0,38.5,31.8,15.6,0000.0,0013.07,0004.68,0003.57
2022-09-29 01:22:00,,0830.7,4.99,0.00,29.9,28.8,00.0,38.5,31.9,15.5,0000.0,0014.16,0004.65,0003.57
2022-09-29 01:23:00,,0830.7,5.02,0.00,29.9,28.9,00.0,38.5,31.9,15.6,0000.0,0014.17,0004.67,0003.57
2022-09-29 01:24:00,,0830.7,5.00,0.00,29.9,28.9,00.0,38.6,31.9,15.5,0000.0,0014.01,0004.68,0003.57
2022-09-29 01:25:00,,0830.7,5.00,0.00,30.0,29.0,00.0,38.6,32.0,15.4,0000.0,0013.82,0004.68,0003.57
2022-09-29 01:26:00,,0830.7,5.00,0.00,30.0,29.1,00.0,38.6,32.0,15.3,0000.0,0013.79,0004.69,0003.57
2022-09-29 01:27:00,,0830.8,5.00,0.00,30.0,28.0,00.0,38.6,32.0,15.3,0000.0,0013.76,0004.71,0003.58
2022-09-29 01:28:00,,0830.8,5.00,0.00,30.0,26.9,00.0,38.6,31.9,15.4,0000.0,0013.53,0004.68,0003.59
2022-09-29 01:29:00,,0830.8,5.00,0.00,30.0,27.0,00.0,38.5,31.8,15.4,0000.0,0013.31,0004.67,0003.60
2022-09-29 01:30:00,,0830.8,5.00,0.00,29.9,27.2,00.0,38.5,31.7,15.4,0000.0,0012.93,0004.64,0003.60
2022-09-29 01:31:00,,0830.8,5.00,0.00,29.9,27.5,00.0,38.5,31.6,15.5,0000.0,0013.53,0004.60,0003.60
2022-09-29 01:32:00,,0830.8,5.00,0.00,29.8,27.8,00.0,38.5,31.7,15.4,0000.0,0013.92,0004.60,0003.60
2022-09-29 01:33:00,,0830.8,4.99,0.00,29.8,28.1,00.0,38.5,31.7,15.4,0000.0,0013.43,0004.57,0003.59
2022-09-29 01:34:00,,0830.8,5.01,0.00,29.8,28.3,00.0,38.5,31.8,15.3,0000.0,0012.74,0004.58,0003.58
2022-09-29 01:35:00,,0830.8,4.99,0.00,29.9,28.4,00.0,38.5,31.7,15.3,0000.0,0012.00,0004.57,0003.57
2022-09-29 01:36:00,,0830.7,5.00,0.00,29.9,28.6,00.0,38.5,31.8,15.3,0000.0,0012.77,0004.59,0003.56
2022-09-29 01:37:00,,0830.7,5.00,0.00,29.9,28.7,00.0,38.5,31.9,15.3,0000.0,0012.57,0004.57,0003.56
2022-09-29 01:38:00,,0830.7,4.99,0.00,29.9,28.8,00.0,38.6,31.9,15.3,0000.0,0013.25,0004.57,0003.55
2022-09-29 01:39:00,,0830.7,5.02,0.00,30.0,28.9,00.0,38.6,31.9,15.2,0000.0,0013.34,0004.57,0003.55
2022-09-29 01:40:00,,0830.7,4.99,0.00,30.0,29.0,00.0,38.6,32.0,15.1,0000.0,0013.59,0004.61,0003.53
2022-09-29 01:41:00,,0830.8,4.99,0.00,30.0,29.1,00.0,38.6,32.0,15.0,0000.0,0014.79,0004.62,0003.53
2022-09-29 01:42:00,,0830.7,5.01,0.00,30.1,29.2,00.0,38.7,32.0,15.0,0000.0,0013.98,0004.65,0003.53
2022-09-29 01:43:00,,0830.7,5.00,0.00,30.1,29.2,00.0,38.7,32.1,14.9,0000.0,0014.88,0004.62,0003.52
2022-09-29 01:44:00,,0830.7,5.00,0.00,30.1,28.2,00.0,38.7,32.0,14.9,0000.0,0015.03,0004.64,0003.52
2022-09-29 01:45:00,,0830.7,4.99,0.00,30.1,27.1,00.0,38.7,31.9,14.9,0000.0,0014.56,0004.64,0003.53
2022-09-29 01:46:00,,0830.7,5.01,0.00,30.1,27.0,00.0,38.6,31.8,14.9,0000.0,0014.61,0004.64,0003.55
2022-09-29 01:47:00,,0830.7,4.99,0.00,30.0,27.2,00.0,38.6,31.7,14.9,0000.0,0015.00,0004.64,0003.55
2022-09-29 01:48:00,,0830.7,5.00,0.00,29.9,27.5,00.0,38.6,31.7,15.0,0000.0,0015.24,0004.64,0003.55
2022-09-29 01:49:00,,0830.8,5.01,0.00,29.9,27.8,00.0,38.6,31.7,15.0,0000.0,0015.42,0004.58,0003.54
2022-09-29 01:50:00,,0830.8,5.00,0.00,29.9,28.1,00.0,38.6,31.7,15.1,0000.0,0015.59,0004.57,0003.54
2022-09-29 01:51:00,,0830.8,5.00,0.00,29.9,28.3,00.0,38.6,31.7,15.1,0000.0,0015.37,0004.54,0003.56
2022-09-29 01:52:00,,0830.9,5.01,0.00,29.9,28.5,00.0,38.6,31.8,15.0,0000.0,0014.42,0004.53,0003.55
2022-09-29 01:53:00,,0830.8,4.99,0.00,29.9,28.6,00.0,38.6,31.8,15.0,0000.0,0014.43,0004.52,0003.55
2022-09-29 01:54:00,,0830.8,4.99,0.00,30.0,28.7,00.0,38.6,31.9,15.0,0000.0,0012.72,0004.52,0003.56
2022-09-29 01:55:00,,0830.9,5.01,0.00,30.0,28.8,00.0,38.6,31.9,14.9,0000.0,0012.84,0004.52,0003.56
2022-09-29 01:56:00,,0830.8,5.00,0.00,30.0,28.9,00.0,38.7,32.0,14.9,0000.0,0013.04,0004.50,0003.55
2022-09-29 01:57:00,,0830.8,4.99,0.00,30.0,29.0,00.0,38.7,32.0,14.8,0000.0,0013.11,0004.52,0003.55
2022-09-29 01:58:00,,0830.9,5.01,0.00,30.1,29.0,00.0,38.7,32.0,14.7,0000.0,0012.83,0004.54,0003.56
2022-09-29 01:59:00,,0830.9,4.99,0.00,30.1,29.1,00.0,38.7,32.0,14.7,0000.0,0012.78,0004.52,0003.55
